Stations météo

réclame
Mon MeteoGroup
Kaisersbach-Cronhütte, Allemagne (10747): Température de l'air & dewpoint: 12.11.2018 05:00:00 - 18.11.2018 05:00:00 (CET)Kaisersbach-Cronhütte, Allemagne (10747): Température de l'air 5cm & Température de l'air -5cm: 12.11.2018 05:00:00 - 18.11.2018 05:00:00 (CET)Kaisersbach-Cronhütte, Allemagne (10747): Température de l'air -20cm & Température de l'air -100cm: 12.11.2018 05:00:00 - 18.11.2018 05:00:00 (CET)Kaisersbach-Cronhütte, Allemagne (10747): Vitesse du vent & gusts: 12.11.2018 05:00:00 - 18.11.2018 05:00:00 (CET)Kaisersbach-Cronhütte, Allemagne (10747): Direction du vent: 12.11.2018 05:00:00 - 18.11.2018 05:00:00 (CET)Kaisersbach-Cronhütte, Allemagne (10747): reduced air pressure: 12.11.2018 05:00:00 - 18.11.2018 05:00:00 (CET)Kaisersbach-Cronhütte, Allemagne (10747): visibility: 12.11.2018 05:00:00 - 18.11.2018 05:00:00 (CET)Kaisersbach-Cronhütte, Allemagne (10747): Ensoleillement: 12.11.2018 05:00:00 - 18.11.2018 05:00:00 (CET)Kaisersbach-Cronhütte, Allemagne (10747): Quantités de précipitations: 12.11.2018 05:00:00 - 18.11.2018 05:00:00 (CET)
Date & Time tt [°C] td [°C] tt 5cm [°C] tt -5cm [°C] tt -20cm [°C] tt -100cm [°C] ff [km/h] ff [knt] fx [km/h] fx [knt] dd ppp [hPa] vv [km] sd [min] rr [mm]
18.11.2018 05:00:00 -1,4 -3,7 -3,1 0,2 3,3 9,7 8 5 18 10 NE 1027,5 14 0 0,0
18.11.2018 04:00:00 -0,9 -3,6 -2,4 0,4 3,4 9,7 12 6 24 13 ENE 1027,6 16 0 0,0
18.11.2018 03:00:00 -0,4 -3,6 -1,9 0,5 3,5 9,7 12 7 28 15 ENE 1027,9 16 0 0,0
18.11.2018 02:00:00 -0,1 -3,5 -1,5 0,7 3,6 9,7 13 7 29 16 E 1028,1 17 0 0,0
18.11.2018 01:00:00 0,0 -3,4 -1,5 0,9 3,7 9,7 13 7 22 12 ENE 1028,4 14 0 0,0
18.11.2018 00:00:00 -0,1 -3,8 -1,7 1,0 3,8 9,7 10 6 19 11 ENE 1029,2 18 0 0,0
17.11.2018 23:00:00 0,7 -3,8 -1,0 1,1 3,9 9,7 12 6 24 13 ENE 1028,9 20 0 0,0
17.11.2018 22:00:00 1,2 -3,6 -0,4 1,2 4,0 9,8 11 6 25 13 E 1028,7 20 0 0,0
17.11.2018 21:00:00 1,5 -3,1 0,0 1,0 4,2 9,8 11 6 29 16 E 1028,5 17 0 0,0
17.11.2018 20:00:00 2,0 -2,9 0,4 1,4 4,3 9,8 16 8 35 19 ENE 1028,8 18 0 0,0
17.11.2018 19:00:00 3,1 -2,8 1,5 1,8 4,5 9,8 16 9 34 18 E 1028,7 25 0 0,0
17.11.2018 18:00:00 4,3 -2,2 1,9 2,4 4,6 9,8 14 8 30 16 ENE 1028,1 31 0 0,0
17.11.2018 17:00:00 5,7 -2,8 3,4 3,1 4,6 9,8 14 8 31 17 ENE 1027,3 44 8 0,0
17.11.2018 16:00:00 7,2 -2,6 4,9 4,2 4,5 9,8 14 8 38 20 ENE 1026,9 34 59 0,0
17.11.2018 15:00:00 7,9 -1,6 8,4 5,2 4,3 9,9 17 9 36 19 ENE 1026,6 30 60 0,0
17.11.2018 14:00:00 8,4 -2,4 9,1 5,0 3,9 9,9 19 10 35 19 E 1026,6 30 60 0,0
17.11.2018 13:00:00 7,5 -1,5 8,4 5,0 3,5 9,9 21 12 46 25 E 1026,9 31 60 0,0
17.11.2018 12:00:00 6,0 -1,4 7,1 2,9 3,4 9,9 24 13 41 22 E 1027,6 21 60 0,0
17.11.2018 11:00:00 4,0 -1,1 4,4 0,5 3,5 9,9 16 9 34 18 E 1028,4 17 60 0,0
17.11.2018 10:00:00 1,9 -1,5 0,6 0,4 3,5 9,9 14 7 28 15 E 1028,8 12 60 0,0
17.11.2018 09:00:00 0,2 -2,0 -1,7 0,3 3,6 9,9 9 5 18 10 ENE 1029,3 10 47 0,0
17.11.2018 08:00:00 -0,9 -2,0 -2,6 0,3 3,7 9,9 9 5 21 11 NE 1029,3 5 0 0,0
17.11.2018 07:00:00 -0,8 -1,9 -2,6 0,4 3,8 10,0 11 6 19 10 NE 1028,7 6 0 0,0
17.11.2018 06:00:00 -0,5 -1,7 -2,3 0,6 3,9 10,0 11 6 22 12 ENE 1028,8 6 0 0,0
17.11.2018 05:00:00 -0,5 -1,6 -2,2 0,7 4,0 10,0 10 6 24 13 ENE 1029,0 6 0 0,0
17.11.2018 04:00:00 -0,4 -1,6 -2,0 0,8 4,1 10,0 9 5 15 8 ENE 1029,4 7 0 0,0
17.11.2018 03:00:00 -0,4 -1,5 -2,5 1,0 4,2 10,0 7 4 14 8 ENE 1029,7 7 0 0,0
17.11.2018 02:00:00 -0,1 -1,4 -2,5 1,1 4,3 10,0 6 3 11 6 NE 1029,6 8 0 0,0
17.11.2018 01:00:00 0,6 -1,0 -2,7 1,3 4,5 10,0 3 2 13 7 ENE 1029,2 10 0 0,0
17.11.2018 00:00:00 0,9 -0,5 -1,3 1,4 4,6 10,0 3 2 9 5 E 1029,3 9 0 0,0
16.11.2018 23:00:00 1,1 -0,3 -2,2 1,5 4,8 10,1 4 2 12 7 NE 1029,4 9 0 0,0
16.11.2018 22:00:00 0,9 -0,3 -2,3 1,6 4,9 10,1 5 3 8 4 N 1029,6 8 0 0,0
16.11.2018 21:00:00 1,6 -0,1 -2,2 1,8 5,1 10,1 3 2 10 5 N 1029,5 13 0 0,0
16.11.2018 20:00:00 1,6 0,2 -2,3 2,0 5,3 10,1 4 2 10 6 N 1030,0 11 0 0,0
16.11.2018 19:00:00 1,8 0,6 -1,4 2,3 5,6 10,1 4 2 9 5 N 1029,7 11 0 0,0
16.11.2018 18:00:00 3,0 0,7 -0,1 2,9 5,8 10,1 3 2 8 4 NNW 1029,1 15 0 0,0
16.11.2018 17:00:00 4,0 0,7 -0,6 4,0 5,9 10,1 3 2 22 12 NE 1028,9 18 10 0,0
16.11.2018 16:00:00 6,0 0,5 4,4 5,2 5,8 10,1 9 5 25 13 E 1028,3 18 60 0,0
16.11.2018 15:00:00 6,5 0,5 7,7 6,1 5,6 10,1 15 8 25 13 E 1028,4 19 60 0,0
16.11.2018 14:00:00 6,1 0,4 7,7 6,2 5,4 10,1 15 8 32 17 E 1028,6 12 60 0,0
16.11.2018 13:00:00 5,8 0,2 7,8 6,8 5,0 10,2 14 8 37 20 E 1029,0 13 60 0,0
16.11.2018 12:00:00 5,3 0,5 7,4 6,0 4,8 10,2 15 8 38 20 E 1029,6 13 60 0,0
16.11.2018 11:00:00 4,5 0,5 6,1 4,4 4,6 10,2 10 5 29 16 E 1029,9 12 60 0,0
16.11.2018 10:00:00 2,9 -0,1 3,3 2,4 4,7 10,2 11 6 22 12 E 1030,2 8 60 0,0
16.11.2018 09:00:00 2,0 0,2 0,7 1,5 4,8 10,2 8 4 15 8 E 1030,2 6 34 0,0
16.11.2018 08:00:00 1,2 0,7 -0,7 1,6 5,0 10,2 4 2 8 4 N 1029,7 4,5 0 0,0
16.11.2018 07:00:00 1,0 0,4 -1,2 1,7 5,2 10,2 4 2 11 6 NE 1029,3 2,6 0 0,0
16.11.2018 06:00:00 1,2 0,6 -0,9 1,9 5,4 10,2 4 2 13 7 ENE 1029,2 2,6 0 0,0
16.11.2018 05:00:00 2,0 1,3 0,5 2,4 5,6 10,2 7 4 11 6 ENE 1029,0 3,5 0 0,0
16.11.2018 04:00:00 3,1 1,9 1,1 3,2 5,7 10,2 6 3 13 7 E 1028,9 4,3 0 0,0
16.11.2018 03:00:00 2,9 2,0 2,1 3,1 5,9 10,2 4 2 16 8 ESE 1029,0 4,1 0 0,0
16.11.2018 02:00:00 2,9 2,0 1,6 3,0 6,1 10,2 7 4 16 9 ESE 1029,1 5 0 0,0
16.11.2018 01:00:00 0,9 0,6 -0,3 2,8 6,3 10,2 5 3 12 7 E 1029,6 4,1 0 0,0
16.11.2018 00:00:00 1,0 0,6 -1,7 3,5 6,6 10,2 0 0 4 2 N 1029,6 1,9 0 0,0
15.11.2018 23:00:00 2,7 1,7 0,1 4,6 6,7 10,3 4 2 13 7 E 1028,8 8 0 0,0
15.11.2018 22:00:00 4,1 2,4 4,0 5,3 6,8 10,3 6 4 16 9 ESE 1028,5 11 0 0,0
15.11.2018 21:00:00 4,2 2,8 4,2 5,5 6,8 10,3 7 4 18 10 SE 1028,4 11 0 0,0
15.11.2018 20:00:00 3,9 2,8 3,9 5,6 6,9 10,3 7 4 14 8 SE 1028,6 12 0 0,0
15.11.2018 19:00:00 3,7 2,8 3,9 5,7 7,0 10,3 4 2 15 8 SE 1028,3 11 0 0,0
15.11.2018 18:00:00 3,6 3,0 3,7 5,9 7,0 10,3 9 5 18 10 E 1028,3 9 0 0,0
15.11.2018 17:00:00 4,1 3,4 4,4 6,3 7,1 10,3 6 3 13 7 E 1027,9 11 0 0,0
15.11.2018 16:00:00 4,3 3,3 4,7 6,7 7,0 10,3 9 5 16 9 E 1027,9 18 0 0,0
15.11.2018 15:00:00 4,7 3,7 5,3 6,9 7,0 10,3 7 4 18 10 E 1027,8 18 0 0,0
15.11.2018 14:00:00 4,7 3,8 5,5 7,1 6,9 10,3 10 5 20 11 ESE 1028,1 17 0 0,0
15.11.2018 13:00:00 4,3 3,5 5,4 7,1 6,7 10,3 8 5 17 9 ENE 1028,2 16 0 0,0
15.11.2018 12:00:00 4,0 3,5 5,2 6,8 6,6 10,3 8 5 16 9 E 1028,7 15 0 0,0
15.11.2018 11:00:00 3,5 3,1 4,5 6,2 6,5 10,3 5 3 11 6 SE 1029,1 4,4 0 0,0
15.11.2018 10:00:00 3,0 2,8 3,6 5,6 6,5 10,3 4 2 11 6 ESE 1029,0 0,3 0 0,0
15.11.2018 09:00:00 2,7 2,4 3,0 5,2 6,5 10,3 7 4 14 8 SSE 1029,0 0,3 0 0,0
15.11.2018 08:00:00 2,5 2,3 2,7 5,1 6,6 10,4 4 2 9 5 SE 1029,0 0,2 0 0,0
15.11.2018 07:00:00 2,6 2,6 2,8 5,1 6,7 10,4 5 3 10 6 SSE 1028,9 0,2 0 0,0
15.11.2018 06:00:00 2,8 2,7 3,0 5,2 6,7 10,4 7 4 11 6 E 1028,8 0,2 0 0,0
15.11.2018 05:00:00 3,1 3,1 3,2 5,3 6,8 10,4 6 4 15 8 SE 1028,5 0,3 0 0,0
15.11.2018 04:00:00 3,4 3,3 3,5 5,4 6,8 10,4 7 4 14 8 ESE 1028,7 0,2 0 0,0
15.11.2018 03:00:00 3,4 3,4 3,5 5,4 6,9 10,4 9 5 14 8 E 1029,0 0,3 0 0,0
15.11.2018 02:00:00 3,6 3,4 3,7 5,5 6,9 10,4 7 4 16 9 ESE 1028,8 0,4 0 0,0
15.11.2018 01:00:00 3,7 3,4 3,8 5,5 7,0 10,4 8 5 18 10 ESE 1029,1 1,3 0 0,0
15.11.2018 00:00:00 3,6 3,4 3,7 5,5 7,1 10,4 7 4 18 10 E 1029,3 1,3 0 0,0
14.11.2018 23:00:00 3,5 3,2 3,7 5,6 7,2 10,4 8 4 14 8 ESE 1029,5 3,1 0 0,0
14.11.2018 22:00:00 3,6 3,4 3,7 5,7 7,3 10,4 6 3 21 11 ESE 1029,7 4,2 0 0,0
14.11.2018 21:00:00 4,0 3,5 4,0 5,9 7,4 10,4 9 5 19 10 SE 1029,8 3,4 0 0,0
14.11.2018 20:00:00 4,4 3,8 4,4 5,8 7,5 10,4 11 6 21 11 E 1030,0 6 0 0,0
14.11.2018 19:00:00 4,6 4,0 4,3 5,6 7,7 10,4 12 7 18 10 E 1030,1 7 0 0,0
14.11.2018 18:00:00 5,5 4,2 3,2 5,9 7,9 10,5 5 3 22 12 E 1029,6 15 0 0,0
14.11.2018 17:00:00 7,3 4,6 5,7 7,2 8,0 10,4 10 5 17 9 E 1029,1 45 15 0,0
14.11.2018 16:00:00 9,7 5,1 7,9 8,6 7,9 10,4 8 5 14 8 E 1028,9 70 60 0,0
14.11.2018 15:00:00 10,9 4,6 12,3 9,7 7,5 10,5 7 4 15 8 ESE 1028,5 62 60 0,0
14.11.2018 14:00:00 11,0 5,0 12,0 10,1 7,0 10,5 9 5 16 9 ESE 1028,8 46 60 0,0
14.11.2018 13:00:00 10,8 5,3 13,4 10,1 6,4 10,5 8 4 19 10 SE 1029,1 41 60 0,0
14.11.2018 12:00:00 9,8 5,1 11,9 9,2 6,0 10,5 10 6 18 10 SE 1029,8 35 60 0,0
14.11.2018 11:00:00 8,6 5,2 9,2 6,7 5,7 10,5 6 3 10 5 SE 1030,6 47 60 0,0
14.11.2018 10:00:00 4,1 2,3 5,4 3,8 5,7 10,5 2 1 3 2 WSW 1031,9 12 60 0,0
14.11.2018 09:00:00 0,4 -0,5 -0,7 2,5 5,9 10,5 0 0 2 1 N 1032,9 7 35 0,0
14.11.2018 08:00:00 -1,0 -1,3 -1,3 2,4 6,1 10,5 0 0 2 1 N 1033,3 0,4 0 0,0
14.11.2018 07:00:00 -0,8 -1,1 -1,7 2,8 6,3 10,5 0 0 2 1 N 1033,6 1,1 0 0,0
14.11.2018 06:00:00 -0,4 -0,7 -0,8 3,2 6,4 10,5 3 1 5 3 NW 1033,6 0,6 0 0,0
14.11.2018 05:00:00 -0,4 -0,6 -0,5 3,3 6,6 10,5 0 0 3 1 N 1033,6 0,3 0 0,0
14.11.2018 04:00:00 0,1 -0,2 -0,1 3,4 6,8 10,5 0 0 3 1 N 1033,8 0,2 0 0,0
14.11.2018 03:00:00 0,3 0,1 -0,1 3,6 7,0 10,5 2 1 4 2 N 1034,0 0,2 0 0,0
14.11.2018 02:00:00 0,7 0,5 -0,4 3,6 7,2 10,5 3 2 4 2 WNW 1033,9 0,4 0 0,0
14.11.2018 01:00:00 1,2 1,0 -0,3 3,7 7,5 10,5 0 0 3 2 N 1034,0 0,8 0 0,0
14.11.2018 00:00:00 1,8 1,8 -0,4 4,2 7,8 10,5 3 1 5 3 WNW 1034,0 0,5 0 0,0
13.11.2018 23:00:00 2,4 2,1 1,0 4,6 8,1 10,5 3 1 5 3 E 1033,8 0,3 0 0,0
13.11.2018 22:00:00 3,4 3,2 0,7 5,1 8,4 10,5 1 1 5 3 N 1033,5 0,3 0 0,0
13.11.2018 21:00:00 4,6 4,2 1,6 5,7 8,7 10,5 2 1 6 3 S 1032,9 1,1 0 0,0
13.11.2018 20:00:00 5,5 5,5 4,0 6,3 9,0 10,5 0 0 3 2 N 1032,5 0,5 0 0,0
13.11.2018 19:00:00 5,9 5,7 3,2 7,1 9,2 10,5 2 1 6 4 NE 1032,1 23 0 0,0
13.11.2018 18:00:00 6,5 6,1 4,1 7,5 9,5 10,5 2 1 10 5 W 1031,4 67 0 0,0
13.11.2018 17:00:00 7,7 7,0 4,4 8,8 9,6 10,5 4 2 11 6 W 1030,6 70 14 0,0
13.11.2018 16:00:00 9,9 6,2 8,3 10,0 9,6 10,5 8 4 24 13 W 1029,5 70 24 0,0
13.11.2018 15:00:00 10,4 7,4 11,8 10,9 9,4 10,5 8 4 29 16 W 1029,1 70 12 0,0
13.11.2018 14:00:00 9,9 8,4 9,8 10,7 9,3 10,5 6 4 19 10 WSW 1028,7 70 0 0,1
13.11.2018 13:00:00 10,1 8,5 10,0 10,7 9,1 10,5 9 5 22 12 W 1028,2 44 0 0,0
13.11.2018 12:00:00 9,9 8,6 9,8 10,3 9,0 10,5 9 5 17 9 SW 1027,8 55 0 0,1
13.11.2018 11:00:00 10,0 9,0 9,9 9,6 8,9 10,5 7 4 16 9 SSW 1027,3 35 0 0,4
13.11.2018 10:00:00 9,6 8,9 9,5 9,2 8,8 10,5 4 2 15 8 WSW 1027,4 9 0 0,4
13.11.2018 09:00:00 9,5 8,7 9,1 8,9 8,8 10,5 5 3 19 10 WSW 1026,3 11 0 0,6
13.11.2018 08:00:00 9,8 8,8 9,2 8,8 8,7 10,5 10 5 21 11 W 1025,4 6 0 0,3
13.11.2018 07:00:00 10,1 9,1 9,3 8,9 8,7 10,5 5 3 10 6 W 1024,0 25 0 0,3
13.11.2018 06:00:00 10,7 9,7 9,9 8,9 8,6 10,5 5 3 16 9 W 1023,5 10 0 0,0
13.11.2018 05:00:00 11,3 9,9 10,3 8,6 8,5 10,5 3 1 15 8 NW 1022,4 39 0 0,0
13.11.2018 04:00:00 11,6 10,4 10,2 8,4 8,5 10,5 4 2 17 9 WSW 1021,6 63 0 0,2
13.11.2018 03:00:00 8,8 8,4 8,0 8,1 8,5 10,5 0 0 4 2 N 1022,3 28 0 0,2
13.11.2018 02:00:00 8,9 8,5 8,2 8,1 8,5 10,5 0 0 5 3 N 1021,9 17 0 0,5
13.11.2018 01:00:00 9,0 8,2 8,4 8,1 8,5 10,5 0 0 3 1 N 1021,4 33 0 0,0
13.11.2018 00:00:00 8,8 8,2 8,0 7,9 8,6 10,5 0 0 2 1 N 1021,7 63 0 0,0
12.11.2018 23:00:00 8,4 8,0 7,4 7,6 8,7 10,5 0 0 3 2 N 1021,7 39 0 0,0
12.11.2018 22:00:00 8,6 8,2 6,2 7,7 8,8 10,5 0 0 4 2 N 1021,4 49 0 0,0
12.11.2018 21:00:00 8,9 8,5 7,2 7,8 8,9 10,5 2 1 4 2 WNW 1021,3 54 0 0,0
12.11.2018 20:00:00 8,9 8,6 7,7 8,0 9,0 10,5 2 1 4 2 NW 1021,0 37 0 0,0
12.11.2018 19:00:00 9,2 9,0 6,7 8,0 9,2 10,5 0 0 3 2 N 1020,7 35 0 0,0
12.11.2018 18:00:00 9,9 9,2 5,9 8,7 9,3 10,5 0 0 3 2 N 1020,0 48 0 0,0
12.11.2018 17:00:00 11,3 10,0 6,8 9,6 9,3 10,5 2 1 4 2 ENE 1019,0 70 12 0,0
12.11.2018 16:00:00 13,4 9,7 9,7 10,9 9,2 10,5 2 1 4 2 N 1018,2 70 32 0,0
12.11.2018 15:00:00 13,8 11,3 13,9 11,3 8,9 10,5 0 0 5 3 N 1017,9 70 1 0,0
12.11.2018 14:00:00 14,4 11,2 13,7 11,4 8,6 10,5 4 2 6 4 SSE 1017,9 70 0 0,0
12.11.2018 13:00:00 17,0 7,8 15,7 11,8 8,1 10,5 4 2 11 6 SSW 1017,2 70 1 0,0
12.11.2018 12:00:00 17,4 7,6 17,4 11,9 7,6 10,5 5 3 12 7 SSW 1016,9 70 13 0,0
12.11.2018 11:00:00 16,3 7,3 15,7 10,2 7,2 10,5 5 3 11 6 SSE 1016,6 70 47 0,0
12.11.2018 10:00:00 13,3 7,3 12,9 6,9 7,1 10,5 5 3 11 6 SE 1017,0 70 60 0,0
12.11.2018 09:00:00 8,2 7,0 4,5 4,7 7,2 10,5 4 2 5 3 E 1017,8 37 57 0,0
12.11.2018 08:00:00 5,0 5,0 2,5 4,5 7,4 10,5 0 0 5 3 N 1018,3 35 0 0,0
12.11.2018 07:00:00 5,0 4,7 2,0 4,8 7,6 10,5 0 0 4 2 N 1018,2 1,8 0 0,0
12.11.2018 06:00:00 5,9 5,9 2,3 5,2 7,8 10,5 2 1 4 2 NW 1017,9 0,4 0 0,0
12.11.2018 05:00:00 6,1 6,1 4,0 5,4 8,0 10,5 2 1 4 2 WNW 1017,8 2,2 0 0,0

tt = Température de l'air
td = dewpoint
tt 5cm = Température de l'air 5cm
tt -5cm = Température de l'air -5cm
tt -20cm = Température de l'air -20cm
tt -100cm = Température de l'air -100cm
ff = Vitesse du vent
fx = gusts
dd = Direction du vent
ppp = reduced air pressure
vv = visibility
sd = Ensoleillement
rr = Quantités de précipitations

stations d'obs. à proximité